Change the Weather History Date:

Wednesday, April 24, 2013

  Actual Average (KPKB) Record (KPKB)
Temperature  
Mean Temperature 50 °F 57 °F  
Max Temperature 63 °F 69 °F 93 °F (1925)
Min Temperature 34 °F 45 °F 28 °F (1986)
Degree Days  
Heating Degree Days 16 9  
Month to date heating degree days 296  
Since 1 July heating degree days 4757  
Cooling Degree Days 0 1  
Month to date cooling degree days 14  
Year to date cooling degree days 17  
Moisture  
Dew Point 45 °F    
Average Humidity 72    
Maximum Humidity 92    
Minimum Humidity 51    
Precipitation  
Precipitation 0.00 in 0.12 in 1.79 in (1975)
Month to date precipitation 2.61  
Year to date precipitation 11.99  
Sea Level Pressure  
Sea Level Pressure 29.94 in    
Wind  
Wind Speed 7 mph (SW)    
Max Wind Speed 25 mph    
Max Gust Speed 44 mph    
Visibility 10 miles    
Events Rain , Thunderstorm    
T = Trace of Precipitation, MM = Missing Value Source: NWS Daily Summary

Daily Weather History Graph

Daily Weather History Graph

Search for Another Location

Airport or City:

Trip Planner

Search our weather history database for the weather conditions in past years. The results will help you decide how hot, cold, wet, or windy it might be!

Date:

Astronomy

Apr. 24, 2013 Rise Set
Actual Time 6:39 AM EDT 8:15 PM EDT
Civil Twilight 6:10 AM EDT 8:43 PM EDT
Nautical Twilight 5:36 AM EDT 9:18 PM EDT
Astronomical Twilight 5:00 AM EDT 9:54 PM EDT
Moon 7:17 PM EDT (4/24) 5:41 AM EDT (4/24)
Length of Visible Light 14h 33m
Length of Day
13h 36m
Waxing Gibbous, 98% of the Moon is Illuminated
Apr 24
Waxing Gibbous
Apr 25
Full
May 2
Last Quarter
May 9
New
May 18
First Quarter

Hourly Weather History & Observations

Time (EDT) Temp. Windchill Dew Point Humidity Pressure Visibility Wind Dir Wind Speed Gust Speed Precip Events Conditions
12:15 AM 53.4 °F - 44.1 °F 71% 29.93 in 10.0 mi Calm Calm - N/A   Clear
12:35 AM 51.6 °F - 44.8 °F 77% 29.93 in 10.0 mi SSW 3.5 mph - N/A   Clear
12:55 AM 57.2 °F - 42.3 °F 57% 29.92 in 10.0 mi South 4.6 mph - N/A   Clear
1:15 AM 58.8 °F - 41.9 °F 53% 29.93 in 10.0 mi South 5.8 mph - N/A   Clear
1:35 AM 59.0 °F - 41.9 °F 53% 29.92 in 10.0 mi South 5.8 mph - N/A   Clear
1:55 AM 58.6 °F - 42.1 °F 54% 29.92 in 10.0 mi South 4.6 mph - N/A   Clear
2:15 AM 58.6 °F - 42.1 °F 54% 29.91 in 10.0 mi South 5.8 mph - N/A   Clear
2:35 AM 58.6 °F - 42.1 °F 54% 29.90 in 10.0 mi South 4.6 mph - N/A   Clear
2:55 AM 59.2 °F - 42.3 °F 53% 29.90 in 10.0 mi South 6.9 mph - N/A   Clear
3:15 AM 59.9 °F - 42.6 °F 53% 29.89 in 10.0 mi South 9.2 mph - N/A   Clear
3:35 AM 60.8 °F - 42.8 °F 52% 29.89 in 10.0 mi South 8.1 mph - N/A   Clear
3:55 AM 61.2 °F - 43.0 °F 51% 29.88 in 10.0 mi South 9.2 mph - N/A   Scattered Clouds
4:15 AM 61.2 °F - 43.3 °F 52% 29.88 in 10.0 mi South 9.2 mph - N/A   Clear
4:35 AM 61.7 °F - 43.7 °F 52% 29.87 in 10.0 mi South 6.9 mph - N/A   Clear
4:55 AM 61.7 °F - 44.1 °F 52% 29.87 in 10.0 mi SSW 9.2 mph - N/A   Clear
5:15 AM 61.5 °F - 44.2 °F 53% 29.87 in 10.0 mi SSW 5.8 mph - N/A   Scattered Clouds
5:35 AM 61.0 °F - 44.4 °F 54% 29.87 in 10.0 mi South 8.1 mph - N/A   Scattered Clouds
5:55 AM 61.2 °F - 44.6 °F 54% 29.88 in 10.0 mi SSW 8.1 mph - N/A   Mostly Cloudy
6:15 AM 60.8 °F - 44.6 °F 55% 29.88 in 10.0 mi SSW 10.4 mph - N/A   Scattered Clouds
6:35 AM 60.6 °F - 44.6 °F 56% 29.88 in 10.0 mi South 5.8 mph - N/A   Clear
6:55 AM 60.4 °F - 44.6 °F 56% 29.87 in 10.0 mi South 6.9 mph - N/A   Clear
7:15 AM 60.1 °F - 44.8 °F 57% 29.87 in 10.0 mi South 4.6 mph - N/A   Clear
7:35 AM 59.9 °F - 45.1 °F 58% 29.87 in 10.0 mi South 6.9 mph - N/A   Clear
7:55 AM 61.2 °F - 45.1 °F 56% 29.86 in 10.0 mi South 6.9 mph - N/A   Clear
8:15 AM 61.2 °F - 45.5 °F 56% 29.86 in 10.0 mi SSW 8.1 mph - N/A   Clear
8:35 AM 63.3 °F - 46.2 °F 54% 29.85 in 10.0 mi South 9.2 mph - N/A   Scattered Clouds
8:55 AM 63.5 °F - 46.4 °F 54% 29.85 in 10.0 mi SSW 5.8 mph - N/A   Mostly Cloudy
9:15 AM 61.7 °F - 48.6 °F 62% 29.87 in 7.0 mi SW 6.9 mph - N/A Rain Rain
9:35 AM 58.5 °F - 50.9 °F 76% 29.86 in 5.0 mi SSW 8.1 mph - N/A Rain Heavy Rain
9:55 AM 59.4 °F - 51.8 °F 76% 29.85 in 10.0 mi SW 5.8 mph - N/A   Overcast
10:15 AM 59.4 °F - 52.2 °F 77% 29.84 in 10.0 mi Calm Calm - N/A   Overcast
10:35 AM 60.4 °F - 53.1 °F 77% 29.81 in 10.0 mi Calm Calm - N/A Rain Light Rain
10:55 AM 60.3 °F - 54.1 °F 80% 29.83 in 7.0 mi West 3.5 mph - N/A Rain Light Rain
11:15 AM 60.6 °F - 53.6 °F 78% 29.82 in 10.0 mi Calm Calm - N/A Rain Light Rain
11:35 AM 61.7 °F - 54.3 °F 77% 29.82 in 10.0 mi Calm Calm - N/A Rain Rain
11:55 AM 60.3 °F - 55.4 °F 84% 29.83 in 10.0 mi WSW 3.5 mph - N/A Rain Light Rain
12:15 PM 58.8 °F - 54.7 °F 86% 29.85 in 7.0 mi WSW 13.8 mph - N/A Rain , Thunderstorm Thunderstorms and Rain
12:35 PM 57.9 °F - 54.5 °F 88% 29.84 in 7.0 mi WSW 12.7 mph - N/A Rain , Thunderstorm Light Thunderstorms and Rain
12:55 PM 58.1 °F - 54.5 °F 88% 29.86 in 10.0 mi SW 10.4 mph 16.1 mph N/A Rain , Thunderstorm Light Thunderstorms and Rain
1:15 PM 58.5 °F - 54.9 °F 88% 29.86 in 10.0 mi SW 5.8 mph - N/A   Overcast
1:35 PM 58.5 °F - 55.2 °F 89% 29.87 in 10.0 mi WSW 8.1 mph - N/A Rain Light Rain
1:55 PM 58.5 °F - 55.0 °F 88% 29.86 in 10.0 mi SW 8.1 mph - N/A Rain Light Rain
2:15 PM 58.6 °F - 55.0 °F 88% 29.82 in 10.0 mi SSW 10.4 mph 18.4 mph N/A Rain Light Rain
2:35 PM 59.2 °F - 54.9 °F 86% 29.84 in 10.0 mi SW 11.5 mph 16.1 mph N/A Rain Light Rain
2:55 PM 60.1 °F - 55.0 °F 83% 29.82 in 10.0 mi SW 12.7 mph 19.6 mph N/A   Mostly Cloudy
3:15 PM 60.4 °F - 55.0 °F 82% 29.84 in 10.0 mi WSW 25.3 mph 43.7 mph N/A Rain Rain
3:35 PM 50.0 °F - 47.3 °F 90% 29.89 in 10.0 mi West 19.6 mph 33.4 mph N/A   Overcast
3:55 PM 49.1 °F - 46.0 °F 89% 29.91 in 10.0 mi West 17.3 mph 20.7 mph N/A   Overcast
4:15 PM 48.2 °F - 45.5 °F 90% 29.92 in 4.0 mi WNW 10.4 mph - N/A Rain Rain
4:35 PM 47.5 °F - 44.6 °F 90% 29.95 in 10.0 mi West 15.0 mph 19.6 mph N/A   Overcast
4:55 PM 46.9 °F - 43.3 °F 87% 29.98 in 10.0 mi WNW 11.5 mph 20.7 mph N/A   Overcast
5:15 PM 46.0 °F 39.9 °F 41.9 °F 85% 29.99 in 10.0 mi WNW 13.8 mph 23.0 mph N/A   Overcast
5:35 PM 45.5 °F 38.3 °F 41.5 °F 86% 30.02 in 10.0 mi WNW 17.3 mph 23.0 mph N/A   Overcast
5:55 PM 43.7 °F 36.6 °F 39.7 °F 86% 30.04 in 7.0 mi NW 15.0 mph 24.2 mph N/A   Overcast
6:15 PM 43.2 °F 36.6 °F 39.2 °F 86% 30.06 in 10.0 mi West 12.7 mph 23.0 mph N/A   Overcast
6:35 PM 42.8 °F 36.2 °F 38.5 °F 85% 30.08 in 10.0 mi WNW 12.7 mph 20.7 mph N/A   Overcast
6:55 PM 42.4 °F 35.0 °F 37.4 °F 82% 30.09 in 10.0 mi West 15.0 mph 25.3 mph N/A   Overcast
7:15 PM 42.8 °F 36.2 °F 37.0 °F 80% 30.11 in 10.0 mi West 12.7 mph 18.4 mph N/A   Overcast
7:35 PM 42.4 °F 34.4 °F 35.6 °F 77% 30.12 in 10.0 mi WNW 17.3 mph 24.2 mph N/A   Overcast
7:55 PM 42.1 °F 34.2 °F 35.4 °F 77% 30.14 in 10.0 mi WNW 16.1 mph 21.9 mph N/A   Overcast
8:15 PM 42.1 °F 37.7 °F 35.2 °F 77% 30.15 in 10.0 mi WNW 6.9 mph - N/A   Overcast
8:35 PM 41.5 °F 37.1 °F 35.2 °F 78% 30.16 in 10.0 mi West 6.9 mph - N/A   Overcast
8:55 PM 41.4 °F 36.8 °F 35.2 °F 79% 30.18 in 10.0 mi West 6.9 mph - N/A   Overcast
9:15 PM 40.8 °F 37.8 °F 35.2 °F 80% 30.19 in 10.0 mi WSW 4.6 mph - N/A   Mostly Cloudy
9:35 PM 39.6 °F 37.4 °F 34.7 °F 83% 30.20 in 10.0 mi SW 3.5 mph - N/A   Scattered Clouds
9:55 PM 38.3 °F 35.9 °F 34.0 °F 84% 30.21 in 10.0 mi WSW 3.5 mph - N/A   Scattered Clouds
11:15 PM 36.9 °F 33.1 °F 33.8 °F 89% 30.22 in 10.0 mi SSW 4.6 mph - N/A   Clear
11:35 PM 37.6 °F 35.1 °F 34.0 °F 87% 30.23 in 10.0 mi West 3.5 mph - N/A   Clear
11:55 PM 34.9 °F - 32.7 °F 92% 30.24 in 10.0 mi Calm Calm - N/A   Scattered Clouds